Tracking 19176 objects as of 26-May-2018
HD Live streaming from Space Station
objects crossing your sky now

COSMOS 1196

Track COSMOS 1196 now!
10-day predictions
COSMOS 1196 is classified as:


NORAD ID: 11879
Int'l Code: 1980-058E
Perigee: 1,474.5 km
Apogee: 1,482.5 km
Inclination: 74.0 °
Period: 115.4 minutes
Semi major axis: 7849 km
RCS: 0.6946 m2 (medium)
Launch date: July 9, 1980
Source: Commonwealth of Independent States (former USSR) (CIS)
Launch site: PLESETSK MISSILE AND SPACE COMPLEX (PKMTR)
aabbcc
Your satellite tracking list
Your tracking list is empty




NASA's NSSDC Master Catalog

Two Line Element Set (TLE):
1 11879U 80058E   18145.61415041 -.00000003 +00000-0 +83297-4 0  9995
2 11879 074.0177 327.9721 0005079 312.7622 115.0868 12.48365300204949
Source of the keplerian elements: AFSPC